User: anonymous   Login
Location: Sungai Bunut
(2.6333°N, 113.7333°E)
Time: 02:40:39
(UTC+00:00)
Language:

ARIANE 5 DEB (SYLDA) - Orbit

View from above orbital plane
View from above orbital plane
View from above satellite
View from above satellite

Ground track
Ground track

The orbit data is extracted from the following two-line orbital elements,

1 39081U 13006D   22019.33205954  .00003277  00000-0  17437-2 0  9999
2 39081   6.1524 156.4371 6244698  42.3792 351.6659  3.63469561 99381
Epoch (UTC): 19 January 2022 07:58:09
Eccentricity: 0.6244698
inclination: 6.1524°
perigee height: 332 km
apogee height: 22648 km
right ascension of ascending node: 156.4371°
argument of perigee: 42.3792°
revolutions per day: 3.63469561
mean anomaly at epoch: 351.6659°
orbit number at epoch: 9938

The dashed part of the orbit path shows where the satellite is in the earth's shadow,  

DLR